owner,sensor,date,latitude,longitude,air_temperature,qcFlag 
COMPS,ioos:station:USF.COMPS:ARP:1,2019-09-01T00:54:00,28.4330,-82.6670,34.06,11111222 
COMPS,ioos:station:USF.COMPS:ARP:1,2019-09-01T01:54:00,28.4330,-82.6670,33.23,11111222 
COMPS,ioos:station:USF.COMPS:ARP:1,2019-09-01T02:54:00,28.4330,-82.6670,33.0,11111222 
COMPS,ioos:station:USF.COMPS:ARP:1,2019-09-01T03:54:00,28.4330,-82.6670,29.89,11111222 
COMPS,ioos:station:USF.COMPS:ARP:1,2019-09-01T04:54:00,28.4330,-82.6670,29.21,11111222 
COMPS,ioos:station:USF.COMPS:ARP:1,2019-09-01T05:54:00,28.4330,-82.6670,28.77,11111222 
COMPS,ioos:station:USF.COMPS:ARP:1,2019-09-01T06:54:00,28.4330,-82.6670,29.79,11111222 
COMPS,ioos:station:USF.COMPS:ARP:1,2019-09-01T07:54:00,28.4330,-82.6670,28.02,11111222 
COMPS,ioos:station:USF.COMPS:ARP:1,2019-09-01T08:54:00,28.4330,-82.6670,28.39,11111222 
COMPS,ioos:station:USF.COMPS:ARP:1,2019-09-01T09:54:00,28.4330,-82.6670,28.1,11111222 
COMPS,ioos:station:USF.COMPS:ARP:1,2019-09-01T10:54:00,28.4330,-82.6670,27.72,11111222 
COMPS,ioos:station:USF.COMPS:ARP:1,2019-09-01T11:54:00,28.4330,-82.6670,28.32,11111222 
COMPS,ioos:station:USF.COMPS:ARP:1,2019-09-01T12:54:00,28.4330,-82.6670,31.91,11111222 
COMPS,ioos:station:USF.COMPS:ARP:1,2019-09-01T13:54:00,28.4330,-82.6670,33.32,11111222 
COMPS,ioos:station:USF.COMPS:ARP:1,2019-09-01T14:54:00,28.4330,-82.6670,34.59,11111222 
COMPS,ioos:station:USF.COMPS:ARP:1,2019-09-01T15:54:00,28.4330,-82.6670,35.91,11111222 
COMPS,ioos:station:USF.COMPS:ARP:1,2019-09-01T16:54:00,28.4330,-82.6670,36.1,11111222 
COMPS,ioos:station:USF.COMPS:ARP:1,2019-09-01T17:54:00,28.4330,-82.6670,36.44,11111222 
COMPS,ioos:station:USF.COMPS:ARP:1,2019-09-01T18:54:00,28.4330,-82.6670,36.13,11111222 
COMPS,ioos:station:USF.COMPS:ARP:1,2019-09-01T19:54:00,28.4330,-82.6670,33.96,11111222 
COMPS,ioos:station:USF.COMPS:ARP:1,2019-09-01T20:54:00,28.4330,-82.6670,34.75,11111222 
COMPS,ioos:station:USF.COMPS:ARP:1,2019-09-01T21:54:00,28.4330,-82.6670,33.67,11111222 
COMPS,ioos:station:USF.COMPS:ARP:1,2019-09-01T22:54:00,28.4330,-82.6670,34.47,11111222 
COMPS,ioos:station:USF.COMPS:ARP:1,2019-09-01T23:54:00,28.4330,-82.6670,32.78,11111222 
COMPS,ioos:station:USF.COMPS:ARP:1,2019-09-02T00:54:00,28.4330,-82.6670,32.6,11111222 
COMPS,ioos:station:USF.COMPS:ARP:1,2019-09-02T01:54:00,28.4330,-82.6670,31.0,11111222 
COMPS,ioos:station:USF.COMPS:ARP:1,2019-09-02T02:54:00,28.4330,-82.6670,29.07,11111222 
COMPS,ioos:station:USF.COMPS:ARP:1,2019-09-02T03:54:00,28.4330,-82.6670,28.86,11111222 
COMPS,ioos:station:USF.COMPS:ARP:1,2019-09-02T04:54:00,28.4330,-82.6670,28.71,11111222 
COMPS,ioos:station:USF.COMPS:ARP:1,2019-09-02T05:54:00,28.4330,-82.6670,28.56,11111222 
COMPS,ioos:station:USF.COMPS:ARP:1,2019-09-02T06:54:00,28.4330,-82.6670,28.53,11111222 
COMPS,ioos:station:USF.COMPS:ARP:1,2019-09-02T07:54:00,28.4330,-82.6670,28.89,11111222 
COMPS,ioos:station:USF.COMPS:ARP:1,2019-09-02T08:54:00,28.4330,-82.6670,28.6,11111222 
COMPS,ioos:station:USF.COMPS:ARP:1,2019-09-02T09:54:00,28.4330,-82.6670,31.18,11111222 
COMPS,ioos:station:USF.COMPS:ARP:1,2019-09-02T10:54:00,28.4330,-82.6670,28.71,11111222 
COMPS,ioos:station:USF.COMPS:ARP:1,2019-09-02T11:54:00,28.4330,-82.6670,29.82,11111222 
COMPS,ioos:station:USF.COMPS:ARP:1,2019-09-02T13:54:00,28.4330,-82.6670,33.1,11111222 
COMPS,ioos:station:USF.COMPS:ARP:1,2019-09-02T14:54:00,28.4330,-82.6670,34.91,11111222 
COMPS,ioos:station:USF.COMPS:ARP:1,2019-09-02T15:54:00,28.4330,-82.6670,35.23,11111222 
COMPS,ioos:station:USF.COMPS:ARP:1,2019-09-02T16:54:00,28.4330,-82.6670,37.14,11111222 
COMPS,ioos:station:USF.COMPS:ARP:1,2019-09-02T17:54:00,28.4330,-82.6670,35.86,11111222 
COMPS,ioos:station:USF.COMPS:ARP:1,2019-09-02T18:54:00,28.4330,-82.6670,28.43,11111222 
COMPS,ioos:station:USF.COMPS:ARP:1,2019-09-02T19:54:00,28.4330,-82.6670,32.29,11111222 
COMPS,ioos:station:USF.COMPS:ARP:1,2019-09-02T20:54:00,28.4330,-82.6670,32.39,11111222 
COMPS,ioos:station:USF.COMPS:ARP:1,2019-09-02T21:54:00,28.4330,-82.6670,35.08,11111222 
COMPS,ioos:station:USF.COMPS:ARP:1,2019-09-02T22:54:00,28.4330,-82.6670,36.18,11111222 
COMPS,ioos:station:USF.COMPS:ARP:1,2019-09-02T23:54:00,28.4330,-82.6670,33.94,11111222 
COMPS,ioos:station:USF.COMPS:ARP:1,2019-09-03T00:54:00,28.4330,-82.6670,33.32,11111222 
COMPS,ioos:station:USF.COMPS:ARP:1,2019-09-03T01:54:00,28.4330,-82.6670,32.91,11111222 
COMPS,ioos:station:USF.COMPS:ARP:1,2019-09-03T02:54:00,28.4330,-82.6670,32.36,11111222 
COMPS,ioos:station:USF.COMPS:ARP:1,2019-09-03T03:54:00,28.4330,-82.6670,32.2,11111222 
COMPS,ioos:station:USF.COMPS:ARP:1,2019-09-03T04:54:00,28.4330,-82.6670,28.69,11111222 
COMPS,ioos:station:USF.COMPS:ARP:1,2019-09-03T05:54:00,28.4330,-82.6670,29.01,11111222 
COMPS,ioos:station:USF.COMPS:ARP:1,2019-09-03T06:54:00,28.4330,-82.6670,28.78,11111222 
COMPS,ioos:station:USF.COMPS:ARP:1,2019-09-03T07:54:00,28.4330,-82.6670,28.45,11111222 
COMPS,ioos:station:USF.COMPS:ARP:1,2019-09-03T08:54:00,28.4330,-82.6670,28.17,11111222 
COMPS,ioos:station:USF.COMPS:ARP:1,2019-09-03T09:54:00,28.4330,-82.6670,28.3,11111222 
COMPS,ioos:station:USF.COMPS:ARP:1,2019-09-03T10:54:00,28.4330,-82.6670,28.88,11111222 
COMPS,ioos:station:USF.COMPS:ARP:1,2019-09-03T11:54:00,28.4330,-82.6670,29.39,11111222 
COMPS,ioos:station:USF.COMPS:ARP:1,2019-09-03T12:54:00,28.4330,-82.6670,32.21,11111222 
COMPS,ioos:station:USF.COMPS:ARP:1,2019-09-03T13:54:00,28.4330,-82.6670,33.53,11111222 
COMPS,ioos:station:USF.COMPS:ARP:1,2019-09-03T14:54:00,28.4330,-82.6670,34.43,11111222 
COMPS,ioos:station:USF.COMPS:ARP:1,2019-09-03T15:54:00,28.4330,-82.6670,25.72,11111222 
COMPS,ioos:station:USF.COMPS:ARP:1,2019-09-03T16:54:00,28.4330,-82.6670,31.03,11111222 
COMPS,ioos:station:USF.COMPS:ARP:1,2019-09-03T17:54:00,28.4330,-82.6670,31.48,11111222 
COMPS,ioos:station:USF.COMPS:ARP:1,2019-09-03T19:54:00,28.4330,-82.6670,34.07,11111222 
COMPS,ioos:station:USF.COMPS:ARP:1,2019-09-03T20:54:00,28.4330,-82.6670,29.53,11111222 
COMPS,ioos:station:USF.COMPS:ARP:1,2019-09-03T21:54:00,28.4330,-82.6670,33.23,11111222 
COMPS,ioos:station:USF.COMPS:ARP:1,2019-09-03T23:54:00,28.4330,-82.6670,33.56,11111222 
COMPS,ioos:station:USF.COMPS:ARP:1,2019-09-04T00:54:00,28.4330,-82.6670,33.16,11111222 
COMPS,ioos:station:USF.COMPS:ARP:1,2019-09-04T01:54:00,28.4330,-82.6670,34.09,11111222 
COMPS,ioos:station:USF.COMPS:ARP:1,2019-09-04T02:54:00,28.4330,-82.6670,33.85,11111222 
COMPS,ioos:station:USF.COMPS:ARP:1,2019-09-04T03:54:00,28.4330,-82.6670,33.26,11111222 
COMPS,ioos:station:USF.COMPS:ARP:1,2019-09-04T04:54:00,28.4330,-82.6670,33.09,11111222 
COMPS,ioos:station:USF.COMPS:ARP:1,2019-09-04T05:54:00,28.4330,-82.6670,32.84,11111222 
COMPS,ioos:station:USF.COMPS:ARP:1,2019-09-04T06:54:00,28.4330,-82.6670,32.66,11111222 
COMPS,ioos:station:USF.COMPS:ARP:1,2019-09-04T07:54:00,28.4330,-82.6670,32.61,11111222 
COMPS,ioos:station:USF.COMPS:ARP:1,2019-09-04T08:54:00,28.4330,-82.6670,32.51,11111222 
COMPS,ioos:station:USF.COMPS:ARP:1,2019-09-04T09:54:00,28.4330,-82.6670,32.42,11111222 
COMPS,ioos:station:USF.COMPS:ARP:1,2019-09-04T10:54:00,28.4330,-82.6670,32.24,11111222 
COMPS,ioos:station:USF.COMPS:ARP:1,2019-09-04T11:54:00,28.4330,-82.6670,32.2,11111222 
COMPS,ioos:station:USF.COMPS:ARP:1,2019-09-04T12:54:00,28.4330,-82.6670,29.62,11111222 
COMPS,ioos:station:USF.COMPS:ARP:1,2019-09-04T13:54:00,28.4330,-82.6670,30.33,11111222 
COMPS,ioos:station:USF.COMPS:ARP:1,2019-09-04T14:54:00,28.4330,-82.6670,30.82,11111222 
COMPS,ioos:station:USF.COMPS:ARP:1,2019-09-04T15:54:00,28.4330,-82.6670,33.01,11111222 
COMPS,ioos:station:USF.COMPS:ARP:1,2019-09-04T16:54:00,28.4330,-82.6670,33.65,11111222 
COMPS,ioos:station:USF.COMPS:ARP:1,2019-09-04T17:54:00,28.4330,-82.6670,33.92,11111222 
COMPS,ioos:station:USF.COMPS:ARP:1,2019-09-04T18:54:00,28.4330,-82.6670,34.08,11111222 
COMPS,ioos:station:USF.COMPS:ARP:1,2019-09-04T19:54:00,28.4330,-82.6670,34.32,11111222 
COMPS,ioos:station:USF.COMPS:ARP:1,2019-09-04T20:54:00,28.4330,-82.6670,34.55,11111222 
COMPS,ioos:station:USF.COMPS:ARP:1,2019-09-04T21:54:00,28.4330,-82.6670,34.9,11111222 
COMPS,ioos:station:USF.COMPS:ARP:1,2019-09-04T22:54:00,28.4330,-82.6670,34.99,11111222 
COMPS,ioos:station:USF.COMPS:ARP:1,2019-09-04T23:54:00,28.4330,-82.6670,35.0,11111222 
COMPS,ioos:station:USF.COMPS:ARP:1,2019-09-05T00:54:00,28.4330,-82.6670,34.72,11111222 
COMPS,ioos:station:USF.COMPS:ARP:1,2019-09-05T01:54:00,28.4330,-82.6670,34.84,11111222 
COMPS,ioos:station:USF.COMPS:ARP:1,2019-09-05T02:54:00,28.4330,-82.6670,34.72,11111222 
COMPS,ioos:station:USF.COMPS:ARP:1,2019-09-05T03:54:00,28.4330,-82.6670,34.64,11111222 
COMPS,ioos:station:USF.COMPS:ARP:1,2019-09-05T04:54:00,28.4330,-82.6670,34.53,11111222 
COMPS,ioos:station:USF.COMPS:ARP:1,2019-09-05T05:54:00,28.4330,-82.6670,34.43,11111222 
COMPS,ioos:station:USF.COMPS:ARP:1,2019-09-05T06:54:00,28.4330,-82.6670,34.6,11111222 
COMPS,ioos:station:USF.COMPS:ARP:1,2019-09-05T07:54:00,28.4330,-82.6670,34.63,11111222 
COMPS,ioos:station:USF.COMPS:ARP:1,2019-09-05T08:54:00,28.4330,-82.6670,34.53,11111222 
COMPS,ioos:station:USF.COMPS:ARP:1,2019-09-05T09:54:00,28.4330,-82.6670,34.43,11111222 
COMPS,ioos:station:USF.COMPS:ARP:1,2019-09-05T10:54:00,28.4330,-82.6670,34.55,11111222 
COMPS,ioos:station:USF.COMPS:ARP:1,2019-09-05T11:54:00,28.4330,-82.6670,32.08,11111222 
COMPS,ioos:station:USF.COMPS:ARP:1,2019-09-05T12:54:00,28.4330,-82.6670,34.38,11111222 
COMPS,ioos:station:USF.COMPS:ARP:1,2019-09-05T13:54:00,28.4330,-82.6670,34.57,11111222 
COMPS,ioos:station:USF.COMPS:ARP:1,2019-09-05T14:54:00,28.4330,-82.6670,34.85,11111222 
COMPS,ioos:station:USF.COMPS:ARP:1,2019-09-05T15:54:00,28.4330,-82.6670,34.9,11111222 
COMPS,ioos:station:USF.COMPS:ARP:1,2019-09-05T16:54:00,28.4330,-82.6670,35.39,11111222 
COMPS,ioos:station:USF.COMPS:ARP:1,2019-09-05T17:54:00,28.4330,-82.6670,35.51,11111222 
COMPS,ioos:station:USF.COMPS:ARP:1,2019-09-05T18:54:00,28.4330,-82.6670,35.68,11111222 
COMPS,ioos:station:USF.COMPS:ARP:1,2019-09-05T19:54:00,28.4330,-82.6670,35.83,11111222 
COMPS,ioos:station:USF.COMPS:ARP:1,2019-09-05T20:54:00,28.4330,-82.6670,35.57,11111222 
COMPS,ioos:station:USF.COMPS:ARP:1,2019-09-05T21:54:00,28.4330,-82.6670,35.35,11111222 
COMPS,ioos:station:USF.COMPS:ARP:1,2019-09-05T22:54:00,28.4330,-82.6670,33.88,11111222 
COMPS,ioos:station:USF.COMPS:ARP:1,2019-09-05T23:54:00,28.4330,-82.6670,34.89,11111222 
COMPS,ioos:station:USF.COMPS:ARP:1,2019-09-06T00:54:00,28.4330,-82.6670,34.85,11111222 
COMPS,ioos:station:USF.COMPS:ARP:1,2019-09-06T01:54:00,28.4330,-82.6670,35.0,11111222 
COMPS,ioos:station:USF.COMPS:ARP:1,2019-09-06T02:54:00,28.4330,-82.6670,34.97,11111222 
COMPS,ioos:station:USF.COMPS:ARP:1,2019-09-06T03:54:00,28.4330,-82.6670,34.9,11111222 
COMPS,ioos:station:USF.COMPS:ARP:1,2019-09-06T05:54:00,28.4330,-82.6670,32.26,11111222 
COMPS,ioos:station:USF.COMPS:ARP:1,2019-09-06T06:54:00,28.4330,-82.6670,33.03,11111222 
COMPS,ioos:station:USF.COMPS:ARP:1,2019-09-06T07:54:00,28.4330,-82.6670,34.42,11111222 
COMPS,ioos:station:USF.COMPS:ARP:1,2019-09-06T08:54:00,28.4330,-82.6670,32.78,11111222 
COMPS,ioos:station:USF.COMPS:ARP:1,2019-09-06T09:54:00,28.4330,-82.6670,32.75,11111222 
COMPS,ioos:station:USF.COMPS:ARP:1,2019-09-06T10:54:00,28.4330,-82.6670,33.42,11111222 
COMPS,ioos:station:USF.COMPS:ARP:1,2019-09-06T11:54:00,28.4330,-82.6670,34.42,11111222 
COMPS,ioos:station:USF.COMPS:ARP:1,2019-09-06T12:54:00,28.4330,-82.6670,32.91,11111222 
COMPS,ioos:station:USF.COMPS:ARP:1,2019-09-06T13:54:00,28.4330,-82.6670,34.56,11111222 
COMPS,ioos:station:USF.COMPS:ARP:1,2019-09-06T14:54:00,28.4330,-82.6670,35.08,11111222 
COMPS,ioos:station:USF.COMPS:ARP:1,2019-09-06T15:54:00,28.4330,-82.6670,35.22,11111222 
COMPS,ioos:station:USF.COMPS:ARP:1,2019-09-06T16:54:00,28.4330,-82.6670,35.49,11111222 
COMPS,ioos:station:USF.COMPS:ARP:1,2019-09-06T17:54:00,28.4330,-82.6670,35.52,11111222 
COMPS,ioos:station:USF.COMPS:ARP:1,2019-09-06T18:54:00,28.4330,-82.6670,35.6,11111222 
COMPS,ioos:station:USF.COMPS:ARP:1,2019-09-06T19:54:00,28.4330,-82.6670,35.72,11111222 
COMPS,ioos:station:USF.COMPS:ARP:1,2019-09-06T20:54:00,28.4330,-82.6670,35.71,11111222 
COMPS,ioos:station:USF.COMPS:ARP:1,2019-09-06T21:54:00,28.4330,-82.6670,35.41,11111222 
COMPS,ioos:station:USF.COMPS:ARP:1,2019-09-06T22:54:00,28.4330,-82.6670,34.98,11111222 
COMPS,ioos:station:USF.COMPS:ARP:1,2019-09-06T23:54:00,28.4330,-82.6670,34.54,11111222 
COMPS,ioos:station:USF.COMPS:ARP:1,2019-09-07T00:54:00,28.4330,-82.6670,34.87,11111222 
COMPS,ioos:station:USF.COMPS:ARP:1,2019-09-07T01:54:00,28.4330,-82.6670,31.92,11111222 
COMPS,ioos:station:USF.COMPS:ARP:1,2019-09-07T02:54:00,28.4330,-82.6670,33.78,11111222 
COMPS,ioos:station:USF.COMPS:ARP:1,2019-09-07T03:54:00,28.4330,-82.6670,33.67,11111222 
COMPS,ioos:station:USF.COMPS:ARP:1,2019-09-07T04:54:00,28.4330,-82.6670,32.78,11111222 
COMPS,ioos:station:USF.COMPS:ARP:1,2019-09-07T05:54:00,28.4330,-82.6670,26.66,11111222 
COMPS,ioos:station:USF.COMPS:ARP:1,2019-09-07T06:54:00,28.4330,-82.6670,27.64,11111222 
COMPS,ioos:station:USF.COMPS:ARP:1,2019-09-07T07:54:00,28.4330,-82.6670,26.61,11111222 
COMPS,ioos:station:USF.COMPS:ARP:1,2019-09-07T08:54:00,28.4330,-82.6670,25.33,11111222 
COMPS,ioos:station:USF.COMPS:ARP:1,2019-09-07T09:54:00,28.4330,-82.6670,25.45,11111222 
COMPS,ioos:station:USF.COMPS:ARP:1,2019-09-07T10:54:00,28.4330,-82.6670,25.85,11111222 
COMPS,ioos:station:USF.COMPS:ARP:1,2019-09-07T11:54:00,28.4330,-82.6670,28.0,11111222 
COMPS,ioos:station:USF.COMPS:ARP:1,2019-09-07T12:54:00,28.4330,-82.6670,32.96,11111222 
COMPS,ioos:station:USF.COMPS:ARP:1,2019-09-07T13:54:00,28.4330,-82.6670,34.55,11111222 
COMPS,ioos:station:USF.COMPS:ARP:1,2019-09-07T14:54:00,28.4330,-82.6670,34.28,11111222 
COMPS,ioos:station:USF.COMPS:ARP:1,2019-09-07T15:54:00,28.4330,-82.6670,34.15,11111222 
COMPS,ioos:station:USF.COMPS:ARP:1,2019-09-07T16:54:00,28.4330,-82.6670,34.67,11111222 
COMPS,ioos:station:USF.COMPS:ARP:1,2019-09-07T17:54:00,28.4330,-82.6670,34.8,11111222 
COMPS,ioos:station:USF.COMPS:ARP:1,2019-09-07T18:54:00,28.4330,-82.6670,35.06,11111222 
COMPS,ioos:station:USF.COMPS:ARP:1,2019-09-07T19:54:00,28.4330,-82.6670,35.32,11111222 
COMPS,ioos:station:USF.COMPS:ARP:1,2019-09-07T20:54:00,28.4330,-82.6670,35.48,11111222 
COMPS,ioos:station:USF.COMPS:ARP:1,2019-09-07T21:54:00,28.4330,-82.6670,35.41,11111222 
COMPS,ioos:station:USF.COMPS:ARP:1,2019-09-07T22:54:00,28.4330,-82.6670,35.62,11111222 
COMPS,ioos:station:USF.COMPS:ARP:1,2019-09-07T23:54:00,28.4330,-82.6670,35.11,11111222 
COMPS,ioos:station:USF.COMPS:ARP:1,2019-09-08T00:54:00,28.4330,-82.6670,35.1,11111222 
COMPS,ioos:station:USF.COMPS:ARP:1,2019-09-08T01:54:00,28.4330,-82.6670,34.82,11111222 
COMPS,ioos:station:USF.COMPS:ARP:1,2019-09-08T02:54:00,28.4330,-82.6670,34.77,11111222 
COMPS,ioos:station:USF.COMPS:ARP:1,2019-09-08T03:54:00,28.4330,-82.6670,34.64,11111222 
COMPS,ioos:station:USF.COMPS:ARP:1,2019-09-08T04:54:00,28.4330,-82.6670,34.6,11111222 
COMPS,ioos:station:USF.COMPS:ARP:1,2019-09-08T05:54:00,28.4330,-82.6670,34.22,11111222 
COMPS,ioos:station:USF.COMPS:ARP:1,2019-09-08T06:54:00,28.4330,-82.6670,29.59,11111222 
COMPS,ioos:station:USF.COMPS:ARP:1,2019-09-08T07:54:00,28.4330,-82.6670,27.2,11111222 
COMPS,ioos:station:USF.COMPS:ARP:1,2019-09-08T08:54:00,28.4330,-82.6670,26.97,11111222 
COMPS,ioos:station:USF.COMPS:ARP:1,2019-09-08T09:54:00,28.4330,-82.6670,26.71,11111222 
COMPS,ioos:station:USF.COMPS:ARP:1,2019-09-08T10:54:00,28.4330,-82.6670,26.43,11111222 
COMPS,ioos:station:USF.COMPS:ARP:1,2019-09-08T11:54:00,28.4330,-82.6670,27.52,11111222 
COMPS,ioos:station:USF.COMPS:ARP:1,2019-09-08T12:54:00,28.4330,-82.6670,32.63,11111222 
COMPS,ioos:station:USF.COMPS:ARP:1,2019-09-08T13:54:00,28.4330,-82.6670,34.84,11111222 
COMPS,ioos:station:USF.COMPS:ARP:1,2019-09-08T14:54:00,28.4330,-82.6670,34.35,11111222 
COMPS,ioos:station:USF.COMPS:ARP:1,2019-09-08T15:54:00,28.4330,-82.6670,34.26,11111222 
COMPS,ioos:station:USF.COMPS:ARP:1,2019-09-08T16:54:00,28.4330,-82.6670,34.43,11111222 
COMPS,ioos:station:USF.COMPS:ARP:1,2019-09-08T17:54:00,28.4330,-82.6670,34.81,11111222 
COMPS,ioos:station:USF.COMPS:ARP:1,2019-09-08T18:54:00,28.4330,-82.6670,34.93,11111222 
COMPS,ioos:station:USF.COMPS:ARP:1,2019-09-08T19:54:00,28.4330,-82.6670,35.31,11111222 
COMPS,ioos:station:USF.COMPS:ARP:1,2019-09-08T20:54:00,28.4330,-82.6670,35.37,11111222 
COMPS,ioos:station:USF.COMPS:ARP:1,2019-09-08T21:54:00,28.4330,-82.6670,35.37,11111222 
COMPS,ioos:station:USF.COMPS:ARP:1,2019-09-08T22:54:00,28.4330,-82.6670,35.3,11111222 
COMPS,ioos:station:USF.COMPS:ARP:1,2019-09-08T23:54:00,28.4330,-82.6670,35.05,11111222 
COMPS,ioos:station:USF.COMPS:ARP:1,2019-09-09T00:54:00,28.4330,-82.6670,32.49,11111222 
COMPS,ioos:station:USF.COMPS:ARP:1,2019-09-09T01:54:00,28.4330,-82.6670,30.23,11111222 
COMPS,ioos:station:USF.COMPS:ARP:1,2019-09-09T02:54:00,28.4330,-82.6670,29.86,11111222 
COMPS,ioos:station:USF.COMPS:ARP:1,2019-09-09T03:54:00,28.4330,-82.6670,28.45,11111222 
COMPS,ioos:station:USF.COMPS:ARP:1,2019-09-09T04:54:00,28.4330,-82.6670,28.19,11111222 
COMPS,ioos:station:USF.COMPS:ARP:1,2019-09-09T05:54:00,28.4330,-82.6670,27.88,11111222 
COMPS,ioos:station:USF.COMPS:ARP:1,2019-09-09T06:54:00,28.4330,-82.6670,27.36,11111222 
COMPS,ioos:station:USF.COMPS:ARP:1,2019-09-09T07:54:00,28.4330,-82.6670,27.35,11111222 
COMPS,ioos:station:USF.COMPS:ARP:1,2019-09-09T08:54:00,28.4330,-82.6670,27.23,11111222 
COMPS,ioos:station:USF.COMPS:ARP:1,2019-09-09T09:54:00,28.4330,-82.6670,26.94,11111222 
COMPS,ioos:station:USF.COMPS:ARP:1,2019-09-09T10:54:00,28.4330,-82.6670,26.75,11111222 
COMPS,ioos:station:USF.COMPS:ARP:1,2019-09-09T11:54:00,28.4330,-82.6670,27.32,11111222 
COMPS,ioos:station:USF.COMPS:ARP:1,2019-09-09T12:54:00,28.4330,-82.6670,29.98,11111222 
COMPS,ioos:station:USF.COMPS:ARP:1,2019-09-09T13:54:00,28.4330,-82.6670,32.18,11111222 
COMPS,ioos:station:USF.COMPS:ARP:1,2019-09-09T14:54:00,28.4330,-82.6670,34.58,11111222 
COMPS,ioos:station:USF.COMPS:ARP:1,2019-09-09T15:54:00,28.4330,-82.6670,33.27,11111222 
COMPS,ioos:station:USF.COMPS:ARP:1,2019-09-09T16:54:00,28.4330,-82.6670,33.64,11111222 
COMPS,ioos:station:USF.COMPS:ARP:1,2019-09-09T20:54:00,28.4330,-82.6670,34.09,11111222 
COMPS,ioos:station:USF.COMPS:ARP:1,2019-09-09T21:54:00,28.4330,-82.6670,34.66,11111222 
COMPS,ioos:station:USF.COMPS:ARP:1,2019-09-09T22:54:00,28.4330,-82.6670,35.31,11111222 
COMPS,ioos:station:USF.COMPS:ARP:1,2019-09-09T23:54:00,28.4330,-82.6670,36.21,11111222 
COMPS,ioos:station:USF.COMPS:ARP:1,2019-09-10T00:54:00,28.4330,-82.6670,32.18,11111222 
COMPS,ioos:station:USF.COMPS:ARP:1,2019-09-10T01:54:00,28.4330,-82.6670,31.06,11111222 
COMPS,ioos:station:USF.COMPS:ARP:1,2019-09-10T02:54:00,28.4330,-82.6670,28.31,11111222 
COMPS,ioos:station:USF.COMPS:ARP:1,2019-09-10T03:54:00,28.4330,-82.6670,27.67,11111222 
COMPS,ioos:station:USF.COMPS:ARP:1,2019-09-10T04:54:00,28.4330,-82.6670,26.96,11111222 
COMPS,ioos:station:USF.COMPS:ARP:1,2019-09-10T05:54:00,28.4330,-82.6670,26.88,11111222 
COMPS,ioos:station:USF.COMPS:ARP:1,2019-09-10T06:54:00,28.4330,-82.6670,26.96,11111222 
COMPS,ioos:station:USF.COMPS:ARP:1,2019-09-10T07:54:00,28.4330,-82.6670,27.06,11111222 
COMPS,ioos:station:USF.COMPS:ARP:1,2019-09-10T08:54:00,28.4330,-82.6670,26.92,11111222 
COMPS,ioos:station:USF.COMPS:ARP:1,2019-09-10T09:54:00,28.4330,-82.6670,26.94,11111222 
COMPS,ioos:station:USF.COMPS:ARP:1,2019-09-10T10:54:00,28.4330,-82.6670,26.71,11111222 
COMPS,ioos:station:USF.COMPS:ARP:1,2019-09-10T11:54:00,28.4330,-82.6670,27.36,11111222 
COMPS,ioos:station:USF.COMPS:ARP:1,2019-09-10T12:54:00,28.4330,-82.6670,29.13,11111222 
COMPS,ioos:station:USF.COMPS:ARP:1,2019-09-10T13:54:00,28.4330,-82.6670,31.45,11111222 
COMPS,ioos:station:USF.COMPS:ARP:1,2019-09-10T14:54:00,28.4330,-82.6670,32.56,11111222 
COMPS,ioos:station:USF.COMPS:ARP:1,2019-09-10T15:54:00,28.4330,-82.6670,33.24,11111222 
COMPS,ioos:station:USF.COMPS:ARP:1,2019-09-10T16:54:00,28.4330,-82.6670,34.42,11111222 
COMPS,ioos:station:USF.COMPS:ARP:1,2019-09-10T17:54:00,28.4330,-82.6670,36.87,11111222 
COMPS,ioos:station:USF.COMPS:ARP:1,2019-09-10T18:54:00,28.4330,-82.6670,37.58,11111222 
COMPS,ioos:station:USF.COMPS:ARP:1,2019-09-10T19:54:00,28.4330,-82.6670,38.21,11111222 
COMPS,ioos:station:USF.COMPS:ARP:1,2019-09-10T20:54:00,28.4330,-82.6670,38.06,11111222 
COMPS,ioos:station:USF.COMPS:ARP:1,2019-09-10T21:54:00,28.4330,-82.6670,37.65,11111222 
COMPS,ioos:station:USF.COMPS:ARP:1,2019-09-10T22:54:00,28.4330,-82.6670,37.13,11111222 
COMPS,ioos:station:USF.COMPS:ARP:1,2019-09-10T23:54:00,28.4330,-82.6670,35.43,11111222 
COMPS,ioos:station:USF.COMPS:ARP:1,2019-09-11T00:54:00,28.4330,-82.6670,31.81,11111222 
COMPS,ioos:station:USF.COMPS:ARP:1,2019-09-11T01:54:00,28.4330,-82.6670,30.79,11111222 
COMPS,ioos:station:USF.COMPS:ARP:1,2019-09-11T02:54:00,28.4330,-82.6670,29.81,11111222 
COMPS,ioos:station:USF.COMPS:ARP:1,2019-09-11T03:54:00,28.4330,-82.6670,29.17,11111222 
COMPS,ioos:station:USF.COMPS:ARP:1,2019-09-11T04:54:00,28.4330,-82.6670,28.46,11111222 
COMPS,ioos:station:USF.COMPS:ARP:1,2019-09-11T05:54:00,28.4330,-82.6670,27.84,11111222 
COMPS,ioos:station:USF.COMPS:ARP:1,2019-09-11T06:54:00,28.4330,-82.6670,27.47,11111222 
COMPS,ioos:station:USF.COMPS:ARP:1,2019-09-11T07:54:00,28.4330,-82.6670,27.11,11111222 
COMPS,ioos:station:USF.COMPS:ARP:1,2019-09-11T08:54:00,28.4330,-82.6670,26.99,11111222 
COMPS,ioos:station:USF.COMPS:ARP:1,2019-09-11T09:54:00,28.4330,-82.6670,26.71,11111222 
COMPS,ioos:station:USF.COMPS:ARP:1,2019-09-11T10:54:00,28.4330,-82.6670,26.37,11111222 
COMPS,ioos:station:USF.COMPS:ARP:1,2019-09-11T11:54:00,28.4330,-82.6670,26.56,11111222 
COMPS,ioos:station:USF.COMPS:ARP:1,2019-09-11T12:54:00,28.4330,-82.6670,28.99,11111222 
COMPS,ioos:station:USF.COMPS:ARP:1,2019-09-11T13:54:00,28.4330,-82.6670,30.72,11111222 
COMPS,ioos:station:USF.COMPS:ARP:1,2019-09-11T14:54:00,28.4330,-82.6670,31.86,11111222 
COMPS,ioos:station:USF.COMPS:ARP:1,2019-09-11T15:54:00,28.4330,-82.6670,33.8,11111222 
COMPS,ioos:station:USF.COMPS:ARP:1,2019-09-11T16:54:00,28.4330,-82.6670,36.17,11111222 
COMPS,ioos:station:USF.COMPS:ARP:1,2019-09-11T17:54:00,28.4330,-82.6670,36.41,11111222 
COMPS,ioos:station:USF.COMPS:ARP:1,2019-09-11T18:54:00,28.4330,-82.6670,37.07,11111222 
COMPS,ioos:station:USF.COMPS:ARP:1,2019-09-11T19:54:00,28.4330,-82.6670,37.55,11111222 
COMPS,ioos:station:USF.COMPS:ARP:1,2019-09-11T20:54:00,28.4330,-82.6670,37.76,11111222 
COMPS,ioos:station:USF.COMPS:ARP:1,2019-09-11T21:54:00,28.4330,-82.6670,37.39,11111222 
COMPS,ioos:station:USF.COMPS:ARP:1,2019-09-11T23:54:00,28.4330,-82.6670,32.65,11111222 
COMPS,ioos:station:USF.COMPS:ARP:1,2019-09-12T00:54:00,28.4330,-82.6670,31.81,11111222 
COMPS,ioos:station:USF.COMPS:ARP:1,2019-09-12T01:54:00,28.4330,-82.6670,30.75,11111222 
COMPS,ioos:station:USF.COMPS:ARP:1,2019-09-12T02:54:00,28.4330,-82.6670,29.82,11111222 
COMPS,ioos:station:USF.COMPS:ARP:1,2019-09-12T03:54:00,28.4330,-82.6670,29.29,11111222 
COMPS,ioos:station:USF.COMPS:ARP:1,2019-09-12T04:54:00,28.4330,-82.6670,28.52,11111222 
COMPS,ioos:station:USF.COMPS:ARP:1,2019-09-12T05:54:00,28.4330,-82.6670,27.69,11111222 
COMPS,ioos:station:USF.COMPS:ARP:1,2019-09-12T06:54:00,28.4330,-82.6670,27.18,11111222 
COMPS,ioos:station:USF.COMPS:ARP:1,2019-09-12T07:54:00,28.4330,-82.6670,26.72,11111222 
COMPS,ioos:station:USF.COMPS:ARP:1,2019-09-12T08:54:00,28.4330,-82.6670,26.52,11111222 
COMPS,ioos:station:USF.COMPS:ARP:1,2019-09-12T09:54:00,28.4330,-82.6670,26.38,11111222 
COMPS,ioos:station:USF.COMPS:ARP:1,2019-09-12T10:54:00,28.4330,-82.6670,26.29,11111222 
COMPS,ioos:station:USF.COMPS:ARP:1,2019-09-12T11:54:00,28.4330,-82.6670,26.61,11111222 
COMPS,ioos:station:USF.COMPS:ARP:1,2019-09-12T12:54:00,28.4330,-82.6670,28.68,11111222 
COMPS,ioos:station:USF.COMPS:ARP:1,2019-09-12T13:54:00,28.4330,-82.6670,31.34,11111222 
COMPS,ioos:station:USF.COMPS:ARP:1,2019-09-13T18:54:00,28.4330,-82.6670,34.13,11111222 
COMPS,ioos:station:USF.COMPS:ARP:1,2019-09-13T19:54:00,28.4330,-82.6670,33.58,11111222 